Location: Basse Occidentale du Courleau
(48.3833°N, 4.8333°W)
Time: 19:38:44
(UTC+00:00)

BREEZE M DEB (TANK) - Pass Details

Date: 05 July 2020
Orbit: 285 x 14546 km, 49.5° (Epoch: 05 August)

Event Time Altitude Azimuth Distance (km) Brightness Sun altitude
Rises 21:16:00 0° 286° (WNW) 3,421 8.0 -7.4°
Reaches altitude 10° 21:19:18 10° 283° (WNW) 1,725 6.3 -7.8°
Maximum altitude 21:22:23 58° 203° (SSW) 382 1.9 -8.2°
Enters shadow 21:24:10 12° 122° (ESE) 1,014 3.6 -8.4°
